Regional Weather Roundup
Issued by NWS

Home | Current Version | Previous Version | Graphics & Text | Print | Product List | Glossary On
Versions: 1 2 3 4 5 6 7 8 9 10 11 12 13 14 15 16 17 18 19 20 21 22 23 24 25 26 27 28 29 30 31 32 33 34 35 36 37 38 39 40 41 42 43 44 45 46 47 48 49 50
943
ASUS45 KCYS 260610
RWRWY

WYOMING REGIONAL WEATHER ROUNDUP
NATIONAL WEATHER SERVICE CHEYENNE WY
1200 AM MDT THU MAY 26 2016

NOTE:  "FAIR" INDICATES FEW OR NO CLOUDS BELOW 12,000 FEET
WITH NO SIGNIFICANT WEATHER AND/OR OBSTRUCTIONS TO VISIBILITY.

WYZ001-260700-
YELLOWSTONE NATIONAL PARK

CITY           SKY/WX    TMP DP  RH WIND       PRES   REMARKS
LK YELLOWSTONE   N/A     32  31  96 CALM      30.13R
6HR MIN TEMP:  31; 6HR MAX TEMP:  43;

W YELLOWSTONE  NOT AVBL

$$
WYZ002>013-054>058-071-098>099-260700-
NORTHERN WYOMING

CITY           SKY/WX    TMP DP  RH WIND       PRES   REMARKS
JACKSON        FAIR      37  37 100 SW6       30.10S WCI  33
CODY           FAIR      52  34  50 W12G18    29.97R
GREYBULL       FAIR      50  47  89 SE5       29.95S
6HR MIN TEMP:  50; 6HR MAX TEMP:  56; 6HR PCP: TRACE;

WORLAND        FAIR      48  45  89 SW6       29.96R
6HR MIN TEMP:  48; 6HR MAX TEMP:  61; 6HR PCP:  0.01;

SHERIDAN       FAIR      42  39  89 NW13      29.93R
6HR MIN TEMP:  41; 6HR MAX TEMP:  57; 6HR PCP:  0.04;

BUFFALO        FAIR      50  38  63 CALM      29.95F
6HR MIN TEMP:  47; 6HR MAX TEMP:  59;

GILLETTE       FAIR      49  41  74 S16       29.91F
6HR MIN TEMP:  44; 6HR MAX TEMP:  58; 6HR PCP: TRACE;

HULETT         FAIR      43  43 100 S12       29.93S
NEWCASTLE      FAIR      46  37  71 CALM      29.95R

$$
WYZ014>020-022>026-101>103-260700-
CENTRAL WYOMING

CITY           SKY/WX    TMP DP  RH WIND       PRES   REMARKS
BIG PINEY      FAIR      40  34  79 CALM      30.12S
6HR MIN TEMP:  39; 6HR MAX TEMP:  52; 6HR PCP: TRACE;

PINEDALE       CLOUDY    37  37 100 CALM      30.13R
DUBOIS         CLOUDY    41  32  70 NW7       30.08S
LANDER         FAIR      47  33  58 S6        30.00S
6HR MIN TEMP:  47; 6HR MAX TEMP:  65;

RIVERTON       MOCLDY    46  39  76 NW8       30.01S
6HR MIN TEMP:  46; 6HR MAX TEMP:  65; 6HR PCP: TRACE;

CASPER         FAIR      45  36  70 SW10      29.97F
6HR MIN TEMP:  41; 6HR MAX TEMP:  53; 6HR PCP:  0.07;

DOUGLAS          N/A    N/A N/A N/A MISG      29.99R

$$
WYZ021-027>030-104>119-260700-
SOUTHERN WYOMING

CITY           SKY/WX    TMP DP  RH WIND       PRES   REMARKS
EVANSTON       FAIR      41  34  76 S7        30.13R
6HR MIN TEMP:  41; 6HR MAX TEMP:  56;

KEMMERER         N/A     37  34  87 CALM      30.13S
FORT BRIDGER   CLEAR     41  39  93 S10       30.15R
ROCK SPRINGS   FAIR      41  35  79 W13       30.09F
6HR MIN TEMP:  41; 6HR MAX TEMP:  53; 6HR PCP: TRACE;

DIXON          FAIR      40  33  76 E6        30.12S
RAWLINS        FAIR      43  33  68 W13       30.07F
6HR MIN TEMP:  43; 6HR MAX TEMP:  58;

SARATOGA       FAIR      37  32  81 W5        30.11R WCI  34
LARAMIE        FAIR      41  31  67 NE7       30.09S
6HR MIN TEMP:  37; 6HR MAX TEMP:  60;

CHEYENNE       FAIR      43  35  73 W8        30.04S
6HR MIN TEMP:  43; 6HR MAX TEMP:  63; 6HR PCP: TRACE;

TORRINGTON     FAIR      49  40  71 CALM      29.96R
6HR MIN TEMP:  48; 6HR MAX TEMP:  72;

PINE BLUFFS    FAIR      45  37  76 W5        30.01S

$$




USA.gov is the U.S. government's official web portal to all federal, state and local government web resources and services.